Lid_Strength_Index
10 13 14 12 12 12 13 14 14 12 11 12 13 13 12 12 13 13 13 13 13 13 13 12 11 11 10 9 9 8 8 8 8 8 9 10 11 11 12 12 11 11 10 10
12 14 10 10 11 12 13 14 14 12 11 13 13 13 12 12 12 12 12 13 13 14 14 13 12 12 11 10 8 8 7 7 7 8 9 11 12 12 13 13 13 12 12 12
13 11 9 10 12 12 13 13 14 14 13 14 15 15 14 12 12 12 12 12 13 14 14 14 12 12 12 11 8 8 7 8 10 10 11 12 13 14 14 14 14 13 13 13
13 10 11 12 12 11 14 12 12 13 16 18 15 18 16 14 13 13 12 13 13 14 14 13 13 13 12 11 9 9 9 10 10 10 11 12 14 15 16 15 15 14 14 14
13 13 12 12 12 11 13 12 13 14 16 18 17 18 17 14 14 12 13 14 14 14 14 14 13 12 12 11 10 10 10 10 11 11 12 14 15 15 15 15 15 15 15 15
13 12 12 12 12 12 12 13 14 15 16 20 17 17 17 14 13 12 13 14 14 15 14 14 13 14 13 12 12 12 11 12 12 13 14 14 15 15 15 16 16 16 16 16
14 14 13 12 14 13 13 15 19 20 21 20 17 18 15 14 13 12 13 14 15 14 15 15 15 15 15 13 13 13 12 13 14 14 14 14 15 15 15 16 16 17 17 17
17 17 13 12 13 14 15 15 18 23 22 20 18 20 16 13 13 14 13 13 14 15 14 15 15 15 15 15 15 15 14 14 14 14 14 14 14 15 15 15 16 17 17 17
16 16 14 13 13 12 16 17 13 17 24 23 18 16 14 15 14 15 14 14 15 15 15 16 16 15 15 15 15 15 15 15 14 14 14 15 15 15 15 16 16 16 17 16
13 16 15 15 13 14 14 13 17 18 23 23 19 18 16 16 15 15 15 15 14 14 15 16 16 15 15 15 15 15 15 15 15 15 15 15 15 16 16 16 17 17 17 17
13 14 17 15 16 15 16 16 15 15 17 21 23 17 14 14 13 15 15 14 14 14 15 16 15 16 15 15 15 16 16 16 16 15 16 16 16 16 17 17 18 18 18 18
12 13 19 17 14 14 14 14 14 16 19 18 19 16 15 15 14 13 14 14 14 14 15 15 15 16 16 16 16 16 16 16 16 16 16 16 16 17 17 18 18 18 18 18
11 14 19 17 16 15 15 14 13 13 15 17 18 16 15 15 14 15 15 15 14 14 15 15 16 16 16 16 17 17 16 16 16 16 16 17 17 17 18 18 18 18 18 19
9 13 16 17 15 15 17 16 14 14 17 16 16 14 14 15 15 15 15 15 14 14 15 16 16 16 16 16 17 17 17 16 16 16 17 17 17 17 17 17 18 18 18 19
10 15 13 13 13 14 16 16 14 15 14 16 14 14 12 11 13 13 14 15 14 14 15 15 15 16 16 17 17 17 16 16 16 16 16 16 16 17 17 17 18 18 18 18
10 15 14 15 13 13 14 13 14 14 14 13 13 13 11 11 10 13 14 14 14 14 14 14 15 15 16 16 16 16 16 16 15 15 16 16 16 16 16 17 17 17 17 17
13 14 15 17 15 14 17 14 13 13 12 12 15 12 11 12 12 13 14 13 14 13 13 14 14 15 15 16 15 16 16 15 15 16 16 16 16 16 16 16 17 17 17 18
15 14 14 17 15 21 14 15 12 12 12 11 11 11 13 12 11 11 12 12 13 13 13 13 13 14 15 15 15 15 16 16 16 16 15 15 15 15 16 16 16 17 17 18
12 15 15 17 18 16 15 17 14 15 14 11 11 10 10 11 15 14 13 12 11 12 12 12 12 12 13 15 15 16 16 16 16 16 15 15 15 15 16 16 16 16 17 18
14 13 15 16 19 20 18 17 16 13 17 14 12 11 11 15 16 11 13 14 13 12 12 12 12 13 13 14 15 15 16 16 16 15 15 14 14 14 15 15 16 16 17 17
18 17 17 16 17 16 15 16 14 17 17 19 17 16 15 14 12 13 13 13 13 13 12 12 12 13 13 14 14 15 15 16 15 15 15 15 14 14 14 15 17 18 18 18
17 18 19 17 18 19 16 15 14 14 16 17 15 15 15 15 16 15 15 15 14 14 14 14 14 15 15 14 14 15 15 15 15 15 15 15 14 15 16 17 20 19 19 19
16 14 16 15 15 15 15 15 15 15 16 17 15 15 15 16 17 17 16 16 16 16 16 16 15 16 17 16 14 15 16 16 17 16 17 18 19 18 18 18 20 21 20 19
14 14 14 14 14 15 15 14 14 14 16 16 15 14 16 16 16 17 17 16 16 16 16 17 16 17 18 18 17 17 17 17 18 19 20 21 20 21 21 19 19 20 20 20
15 15 16 16 16 16 14 14 12 12 15 16 16 15 15 15 16 16 16 16 15 16 17 16 16 17 18 18 19 20 19 19 20 21 21 22 21 21 21 20 21 19 20 19
15 15 15 15 13 13 13 13 12 12 14 14 15 15 14 14 14 15 16 16 16 16 18 18 18 18 19 20 22 23 24 20 20 21 21 21 21 22 21 21 21 14 13 13